Regional Weather Roundup
Issued by NWS

Home | Current Version | Previous Version | Graphics & Text | Print | Product List | Glossary On
Versions: 1 2 3 4 5 6 7 8 9 10 11 12 13 14 15 16 17 18 19 20 21 22 23 24 25 26 27 28 29 30 31 32 33 34 35 36 37 38 39 40 41 42 43 44 45 46 47 48 49 50
000
ASUS43 KIND 220109
RWRIN

WEATHER ROUNDUP FOR INDIANA
NATIONAL WEATHER SERVICE INDIANAPOLIS IN
800 PM EST SUN DEC 21 2014

NOTE: "FAIR" INDICATES FEW OR NO CLOUDS BELOW 12,000 FEET WITH NO
SIGNIFICANT WEATHER AND/OR OBSTRUCTIONS TO VISIBILITY.

* - STATION DOES NOT REPORT WEATHER SUCH AS PRECIPITATION OR FOG.

+ - STATION NOT QUALITY CONTROLLED BY THE NATIONAL WEATHER SERVICE.
    USE DATA WITH CAUTION...ESPECIALLY DEWPOINT AND RELATIVE
    HUMIDITY OBSERVATIONS.

INZ001>003-010>013-019-020-220200-
NORTHWEST INDIANA

CITY           SKY/WX    TMP DP  RH WIND       PRES   REMARKS
GARY /AIRPORT/ CLOUDY    37  27  65 SE12      30.11S
KNOX *+        PTCLDY    32  26  76 SE9       30.12S WCI  25
LA PORTE +     PTCLDY    32  29  89 SE5       30.12S FOG     WCI  28
MICHIGAN CITY+ PTCLDY    32  25  74 S6        30.12S WCI  26
MONTICELLO +   PTCLDY    32  28  86 SE3       30.11F
RENSSELAER +   PTCLDY    32  32 100 SE8       30.11S FOG     WCI  25
VALPARAISO     PTCLDY    31  26  82 SE7       30.11F WCI  24

$$

LMZ046-743>745-220200-
SOUTHERN LAKE MICHIGAN

STATION/POSITION TIME  TEMP WIND        PRES
                       AIR  DIR/SP/G
                 (UTC) (F)  (DEG/KT/KT) (MB)

$$

INZ004-005-014>016-021>024-220200-
NORTH CENTRAL INDIANA

CITY           SKY/WX    TMP DP  RH WIND       PRES   REMARKS
GOSHEN         PTCLDY    32  26  78 SE10      30.14S WCI  24
LOGANSPORT +   CLEAR     30  27  86 SE7       30.13F FOG     WCI  23
PERU/GRISSOM   CLEAR     32  32 100 SE9       30.12S WCI  24
ROCHESTER +    PTCLDY    34  30  86 SE7       30.13S FOG     WCI  28
SOUTH BEND     NOT AVBL
WARSAW +       MOCLDY    30  27  86 SE7       30.14S WCI  23

$$

INZ006>009-017-018-025>027-220200-
NORTHEAST INDIANA

CITY           SKY/WX    TMP DP  RH WIND       PRES   REMARKS
ANGOLA *+      CLEAR     28  25  86 SE8       30.16S WCI  20
AUBURN +       CLEAR     32  27  80 E6        30.17F WCI  26
FORT WAYNE     PTCLDY    28  24  85 E7        30.17S WCI  21
HUNTINGTON +   PTCLDY    29  26  87 E5        30.15S WCI  24

$$

INZ028-029-035-036-043>045-051>053-220200-
WEST CENTRAL INDIANA

CITY           SKY/WX    TMP DP  RH WIND       PRES   REMARKS
CRAWFORDSVL +  CLEAR     30  23  74 SE9       30.11  WCI  22
GREENCASTLE +  CLEAR     32  27  80 SE6       30.11S WCI  26
LAFAYETTE      CLEAR     28  25  88 E6        30.11F WCI  22
TERRE HAUTE    CLEAR     33  27  78 SE3       30.11S

$$

INZ030>032-037>040-046>048-054>057-064-065-220200-
CENTRAL INDIANA

CITY           SKY/WX    TMP DP  RH WIND       PRES   REMARKS
CP ATTERBURY + CLEAR     27  25  93 MISG      30.14S FOG
COLUMBUS       CLEAR     28  28 100 E5        30.14  WCI  23
FRANKFORT +    CLEAR     31  29  92 E9        30.12F FOG     WCI  23
GREENWOOD *+   CLEAR     32  25  74 E6        30.13  WCI  26
INDIANAPOLIS   MOCLDY    30  26  85 E8        30.11S WCI  22
-EAGLE CREEK   CLEAR     30  25  81 E5        30.11F WCI  25
KOKOMO *+      CLEAR     30  25  80 SE7       30.13S WCI  23
MARION +       CLEAR     30  26  86 SE7       30.14F WCI  23
MT COMFORT *+  CLEAR     30  25  80 E8        30.13S WCI  23
SHELBYVILLE    CLEAR     31  26  82 E8        30.13S WCI  23
ZIONSVILLE +   FAIR      31  26  82 E7        30.12S HAZE    WCI  24

$$

INZ033-034-041-042-049-050-058-059-220200-
EAST CENTRAL INDIANA

CITY           SKY/WX    TMP DP  RH WIND       PRES   REMARKS
MUNCIE         PTCLDY    31  26  82 SE5       30.14F WCI  26

$$

INZ060-061-067>069-081>083-085>088-220200-
SOUTHWEST INDIANA

CITY           SKY/WX    TMP DP  RH WIND       PRES   REMARKS
EVANSVILLE     CLEAR     35  28  75 NE3       30.10F
HUNTINGBURG *+ CLEAR     36  27  69 E7        30.12S
WASHINGTON +   CLEAR     32  27  81 E6        30.12S WCI  26

$$

INZ062-063-066-070>080-084-089>092-220200-
SOUTH CENTRAL AND SOUTHEAST INDIANA

CITY           SKY/WX    TMP DP  RH WIND       PRES   REMARKS
BLOOMINGTON    CLEAR     31  27  85 SE6       30.12R WCI  25
NORTH VERNON + CLEAR     32  27  80 E3        30.15

$$



USA.gov is the U.S. government's official web portal to all federal, state and local government web resources and services.